Saint Bonnet de Bellac- Haute Vienne - France
Donnes mto: dimanche, 01/04/2012
Date Horaire Temp. E. Hum. E. P.atmo. Pluie Vent Direction Direction Ensoleilleme Solaire P. de rose Temp au vent Rafales
01/04/2012 00:00 8,5 C 76 % 1013,2 hPa 0,0 mm 8,6 km/h (2 Bft) NE 45 0 min 0 W/m 4,5 C 7,1 C 10,4 km/h (2 Bft)
01/04/2012 00:10 8,3 C 76 % 1013,2 hPa 0,0 mm 5,0 km/h (1 Bft) E-NE 67 0 min 0 W/m 4,3 C 7,8 C 7,2 km/h (2 Bft)
01/04/2012 00:20 8,0 C 77 % 1013,3 hPa 0,0 mm 3,2 km/h (1 Bft) E 90 0 min 0 W/m 4,2 C 8,0 C 8,3 km/h (2 Bft)
01/04/2012 00:30 7,8 C 77 % 1013,3 hPa 0,0 mm 2,5 km/h (1 Bft) NE 45 0 min 0 W/m 4,0 C 7,8 C 4,0 km/h (1 Bft)
01/04/2012 00:40 7,6 C 78 % 1013,3 hPa 0,0 mm 4,0 km/h (1 Bft) N-NE 22 0 min 0 W/m 4,0 C 7,6 C 6,1 km/h (2 Bft)
01/04/2012 00:50 7,4 C 79 % 1013,3 hPa 0,0 mm 7,2 km/h (2 Bft) NE 45 0 min 0 W/m 4,0 C 6,1 C 11,9 km/h (2 Bft)
01/04/2012 01:00 7,4 C 80 % 1013,3 hPa 0,0 mm 5,4 km/h (2 Bft) NE 45 0 min 0 W/m 4,2 C 6,7 C 8,3 km/h (2 Bft)
01/04/2012 01:10 7,3 C 80 % 1013,2 hPa 0,0 mm 3,6 km/h (1 Bft) NE 45 0 min 0 W/m 4,1 C 7,3 C 7,2 km/h (2 Bft)
01/04/2012 01:20 7,1 C 80 % 1013,2 hPa 0,0 mm 6,8 km/h (2 Bft) N-NE 22 0 min 0 W/m 3,9 C 5,9 C 7,6 km/h (2 Bft)
01/04/2012 01:30 7,1 C 80 % 1013,2 hPa 0,0 mm 7,6 km/h (2 Bft) E-NE 67 0 min 0 W/m 3,9 C 5,7 C 10,1 km/h (2 Bft)
01/04/2012 01:40 7,1 C 80 % 1013,2 hPa 0,0 mm 4,7 km/h (1 Bft) NE 45 0 min 0 W/m 3,9 C 6,6 C 9,4 km/h (2 Bft)
01/04/2012 01:50 6,9 C 80 % 1013,3 hPa 0,0 mm 6,1 km/h (2 Bft) NE 45 0 min 0 W/m 3,7 C 5,9 C 8,3 km/h (2 Bft)
01/04/2012 02:00 6,8 C 80 % 1013,2 hPa 0,0 mm 6,1 km/h (2 Bft) N-NE 22 0 min 0 W/m 3,6 C 5,8 C 8,6 km/h (2 Bft)
01/04/2012 02:10 6,8 C 80 % 1013,1 hPa 0,0 mm 7,6 km/h (2 Bft) NE 45 0 min 0 W/m 3,6 C 5,3 C 10,4 km/h (2 Bft)
01/04/2012 02:20 6,6 C 81 % 1013,1 hPa 0,0 mm 6,1 km/h (2 Bft) NE 45 0 min 0 W/m 3,6 C 5,5 C 9,7 km/h (2 Bft)
01/04/2012 02:30 6,6 C 81 % 1013,2 hPa 0,0 mm 6,8 km/h (2 Bft) N-NE 22 0 min 0 W/m 3,6 C 5,3 C 9,7 km/h (2 Bft)
01/04/2012 02:40 6,6 C 81 % 1013,1 hPa 0,0 mm 5,8 km/h (2 Bft) N-NE 22 0 min 0 W/m 3,6 C 5,6 C 5,8 km/h (2 Bft)
01/04/2012 02:50 6,4 C 82 % 1013,1 hPa 0,0 mm 6,5 km/h (2 Bft) N 360 0 min 0 W/m 3,6 C 5,2 C 11,2 km/h (2 Bft)
01/04/2012 03:02 6,4 C 82 % 1013,1 hPa 0,0 mm 3,2 km/h (1 Bft) NE 45 0 min 0 W/m 3,6 C 6,4 C 7,2 km/h (2 Bft)
01/04/2012 03:10 6,3 C 82 % 1013,0 hPa 0,0 mm 6,5 km/h (2 Bft) NE 45 0 min 0 W/m 3,5 C 5,1 C 11,2 km/h (2 Bft)
01/04/2012 03:20 6,2 C 82 % 1013,1 hPa 0,0 mm 4,0 km/h (1 Bft) N-NE 22 0 min 0 W/m 3,4 C 6,2 C 4,7 km/h (1 Bft)
01/04/2012 03:30 6,1 C 82 % 1013,0 hPa 0,0 mm 5,8 km/h (2 Bft) E-NE 67 0 min 0 W/m 3,3 C 5,1 C 11,5 km/h (2 Bft)
01/04/2012 03:40 6,0 C 82 % 1013,0 hPa 0,0 mm 6,1 km/h (2 Bft) N-NE 22 0 min 0 W/m 3,2 C 4,8 C 8,6 km/h (2 Bft)
01/04/2012 03:50 5,9 C 83 % 1013,0 hPa 0,0 mm 4,7 km/h (1 Bft) NE 45 0 min 0 W/m 3,2 C 5,2 C 8,6 km/h (2 Bft)
01/04/2012 04:00 5,8 C 83 % 1012,8 hPa 0,0 mm 2,5 km/h (1 Bft) E-NE 67 0 min 0 W/m 3,1 C 5,8 C 2,9 km/h (1 Bft)
01/04/2012 04:10 5,8 C 83 % 1012,8 hPa 0,0 mm 2,9 km/h (1 Bft) E-NE 67 0 min 0 W/m 3,1 C 5,8 C 4,3 km/h (1 Bft)
01/04/2012 04:20 5,8 C 83 % 1012,7 hPa 0,0 mm 6,5 km/h (2 Bft) E-NE 67 0 min 0 W/m 3,1 C 4,5 C 6,8 km/h (2 Bft)
01/04/2012 04:30 5,8 C 83 % 1012,7 hPa 0,0 mm 4,0 km/h (1 Bft) N 360 0 min 0 W/m 3,1 C 5,8 C 6,5 km/h (2 Bft)
01/04/2012 04:40 5,7 C 83 % 1012,7 hPa 0,0 mm 5,8 km/h (2 Bft) NE 45 0 min 0 W/m 3,0 C 4,6 C 9,7 km/h (2 Bft)
01/04/2012 04:50 5,8 C 84 % 1012,7 hPa 0,0 mm 4,3 km/h (1 Bft) NE 45 0 min 0 W/m 3,3 C 5,8 C 4,3 km/h (1 Bft)
01/04/2012 05:00 5,7 C 84 % 1012,5 hPa 0,0 mm 5,4 km/h (2 Bft) NE 45 0 min 0 W/m 3,2 C 4,7 C 7,6 km/h (2 Bft)
01/04/2012 05:10 5,7 C 84 % 1012,5 hPa 0,0 mm 7,2 km/h (2 Bft) E-NE 67 0 min 0 W/m 3,2 C 4,2 C 7,6 km/h (2 Bft)
01/04/2012 05:20 5,7 C 84 % 1012,5 hPa 0,0 mm 5,0 km/h (1 Bft) NE 45 0 min 0 W/m 3,2 C 4,9 C 5,0 km/h (1 Bft)
01/04/2012 05:30 5,6 C 84 % 1012,4 hPa 0,0 mm 6,1 km/h (2 Bft) NE 45 0 min 0 W/m 3,1 C 4,4 C 9,4 km/h (2 Bft)
01/04/2012 05:40 5,5 C 85 % 1012,3 hPa 0,0 mm 5,4 km/h (2 Bft) NE 45 0 min 0 W/m 3,2 C 4,5 C 10,8 km/h (2 Bft)
01/04/2012 05:50 5,4 C 85 % 1012,4 hPa 0,0 mm 2,9 km/h (1 Bft) NE 45 0 min 0 W/m 3,1 C 5,4 C 4,0 km/h (1 Bft)
01/04/2012 06:00 5,3 C 85 % 1012,3 hPa 0,0 mm 4,0 km/h (1 Bft) NE 45 0 min 0 W/m 3,0 C 5,3 C 4,3 km/h (1 Bft)
01/04/2012 06:10 5,3 C 86 % 1012,3 hPa 0,0 mm 5,0 km/h (1 Bft) NE 45 0 min 0 W/m 3,2 C 4,4 C 6,8 km/h (2 Bft)
01/04/2012 06:20 5,3 C 86 % 1012,4 hPa 0,0 mm 5,8 km/h (2 Bft) NE 45 0 min 0 W/m 3,2 C 4,1 C 11,2 km/h (2 Bft)
01/04/2012 06:30 5,5 C 87 % 1012,3 hPa 0,0 mm 5,8 km/h (2 Bft) NE 45 0 min 0 W/m 3,5 C 4,4 C 11,2 km/h (2 Bft)
01/04/2012 06:40 5,9 C 87 % 1012,4 hPa 0,0 mm 9,7 km/h (2 Bft) E 90 0 min 0 W/m 3,9 C 3,8 C 13,0 km/h (3 Bft)
01/04/2012 06:50 6,3 C 87 % 1012,4 hPa 0,0 mm 9,7 km/h (2 Bft) NE 45 0 min 0 W/m 4,3 C 4,3 C 16,2 km/h (3 Bft)
01/04/2012 07:00 6,6 C 86 % 1012,3 hPa 0,0 mm 12,2 km/h (2 Bft) NE 45 0 min 0 W/m 4,4 C 4,2 C 12,2 km/h (2 Bft)
01/04/2012 07:10 6,9 C 85 % 1012,2 hPa 0,0 mm 8,6 km/h (2 Bft) NE 45 0 min 0 W/m 4,6 C 5,2 C 9,4 km/h (2 Bft)
01/04/2012 07:20 7,0 C 85 % 1012,2 hPa 0,0 mm 14,4 km/h (3 Bft) NE 45 0 min 0 W/m 4,7 C 4,3 C 14,4 km/h (3 Bft)
01/04/2012 07:30 7,1 C 84 % 1012,3 hPa 0,0 mm 9,0 km/h (2 Bft) N-NE 22 0 min 0 W/m 4,6 C 5,4 C 11,2 km/h (2 Bft)
01/04/2012 07:40 7,1 C 83 % 1012,3 hPa 0,0 mm 10,1 km/h (2 Bft) NE 45 0 min 0 W/m 4,4 C 5,1 C 11,5 km/h (2 Bft)
01/04/2012 07:50 7,1 C 82 % 1012,4 hPa 0,0 mm 9,0 km/h (2 Bft) E-NE 67 2 min 0 W/m 4,2 C 5,4 C 14,0 km/h (3 Bft)
01/04/2012 08:00 7,1 C 82 % 1012,4 hPa 0,0 mm 7,6 km/h (2 Bft) NE 45 2 min 0 W/m 4,2 C 5,7 C 7,6 km/h (2 Bft)
01/04/2012 08:10 7,1 C 82 % 1012,4 hPa 0,0 mm 11,5 km/h (2 Bft) NE 45 2 min 0 W/m 4,2 C 4,9 C 13,7 km/h (3 Bft)
01/04/2012 08:20 7,1 C 82 % 1012,5 hPa 0,0 mm 13,3 km/h (3 Bft) NE 45 2 min 0 W/m 4,2 C 4,6 C 22,3 km/h (4 Bft)
01/04/2012 08:30 7,0 C 81 % 1012,6 hPa 0,0 mm 10,8 km/h (2 Bft) N 360 2 min 0 W/m 4,0 C 4,9 C 14,4 km/h (3 Bft)
01/04/2012 08:40 6,9 C 81 % 1012,6 hPa 0,0 mm 11,5 km/h (2 Bft) NE 45 2 min 0 W/m 3,9 C 4,6 C 16,6 km/h (3 Bft)
01/04/2012 08:50 6,9 C 81 % 1012,7 hPa 0,0 mm 12,2 km/h (2 Bft) N 360 2 min 0 W/m 3,9 C 4,5 C 13,0 km/h (3 Bft)
01/04/2012 09:00 6,9 C 80 % 1012,7 hPa 0,0 mm 10,8 km/h (2 Bft) NE 45 2 min 0 W/m 3,7 C 4,8 C 11,9 km/h (2 Bft)
01/04/2012 09:10 7,1 C 80 % 1012,7 hPa 0,0 mm 9,0 km/h (2 Bft) N-NE 22 2 min 0 W/m 3,9 C 5,4 C 13,3 km/h (3 Bft)
01/04/2012 09:20 7,1 C 79 % 1012,9 hPa 0,0 mm 10,1 km/h (2 Bft) N-NE 22 2 min 0 W/m 3,7 C 5,1 C 14,8 km/h (3 Bft)
01/04/2012 09:30 7,2 C 79 % 1013,0 hPa 0,0 mm 17,3 km/h (3 Bft) N-NE 22 2 min 0 W/m 3,8 C 4,2 C 23,0 km/h (4 Bft)
01/04/2012 09:40 7,5 C 78 % 1013,0 hPa 0,0 mm 12,6 km/h (3 Bft) N-NE 22 2 min 0 W/m 3,9 C 5,2 C 14,0 km/h (3 Bft)
01/04/2012 09:50 7,8 C 77 % 1013,0 hPa 0,0 mm 7,9 km/h (2 Bft) NE 45 2 min 0 W/m 4,0 C 6,4 C 11,2 km/h (2 Bft)
01/04/2012 10:00 8,3 C 76 % 1012,9 hPa 0,0 mm 13,3 km/h (3 Bft) E-NE 67 2 min 0 W/m 4,3 C 6,1 C 19,8 km/h (3 Bft)
01/04/2012 10:10 8,6 C 74 % 1013,0 hPa 0,0 mm 13,3 km/h (3 Bft) N-NE 22 2 min 0 W/m 4,2 C 6,4 C 17,3 km/h (3 Bft)
01/04/2012 10:20 8,9 C 73 % 1013,0 hPa 0,0 mm 10,4 km/h (2 Bft) E-NE 67 2 min 0 W/m 4,3 C 7,2 C 16,2 km/h (3 Bft)
01/04/2012 10:30 9,4 C 72 % 1013,1 hPa 0,0 mm 10,1 km/h (2 Bft) N-NE 22 2 min 0 W/m 4,6 C 7,9 C 10,1 km/h (2 Bft)
01/04/2012 10:40 9,8 C 72 % 1013,0 hPa 0,0 mm 11,5 km/h (2 Bft) E-NE 67 2 min 0 W/m 5,0 C 8,1 C 15,1 km/h (3 Bft)
01/04/2012 10:50 10,3 C 70 % 1013,2 hPa 0,0 mm 8,3 km/h (2 Bft) N-NE 22 2 min 0 W/m 5,1 C 10,3 C 10,8 km/h (2 Bft)
01/04/2012 11:00 10,5 C 69 % 1013,1 hPa 0,0 mm 9,0 km/h (2 Bft) NE 45 2 min 0 W/m 5,1 C 10,5 C 13,3 km/h (3 Bft)
01/04/2012 11:10 10,9 C 69 % 1013,1 hPa 0,0 mm 7,9 km/h (2 Bft) N-NE 22 2 min 0 W/m 5,4 C 10,9 C 13,0 km/h (3 Bft)
01/04/2012 11:20 11,4 C 68 % 1013,1 hPa 0,0 mm 13,7 km/h (3 Bft) NE 45 2 min 0 W/m 5,7 C 11,4 C 27,0 km/h (5 Bft)
01/04/2012 11:30 11,5 C 66 % 1013,1 hPa 0,0 mm 7,6 km/h (2 Bft) N-NE 22 2 min 0 W/m 5,4 C 11,5 C 7,6 km/h (2 Bft)
01/04/2012 11:40 11,6 C 65 % 1013,0 hPa 0,0 mm 10,8 km/h (2 Bft) N-NE 22 2 min 0 W/m 5,2 C 11,6 C 11,2 km/h (2 Bft)
01/04/2012 11:50 12,1 C 66 % 1013,1 hPa 0,0 mm 9,0 km/h (2 Bft) N-NE 22 2 min 0 W/m 5,9 C 12,1 C 15,5 km/h (3 Bft)
01/04/2012 12:00 12,2 C 63 % 1013,1 hPa 0,0 mm 10,1 km/h (2 Bft) N-NE 22 2 min 0 W/m 5,4 C 12,2 C 15,8 km/h (3 Bft)
01/04/2012 12:10 12,4 C 63 % 1013,0 hPa 0,0 mm 17,6 km/h (3 Bft) NE 45 2 min 0 W/m 5,6 C 12,4 C 25,9 km/h (4 Bft)
01/04/2012 12:20 12,6 C 63 % 1013,0 hPa 0,0 mm 11,5 km/h (2 Bft) NE 45 2 min 0 W/m 5,7 C 12,6 C 22,0 km/h (4 Bft)
01/04/2012 12:30 12,8 C 62 % 1013,0 hPa 0,0 mm 9,0 km/h (2 Bft) N-NE 22 2 min 0 W/m 5,7 C 12,8 C 15,8 km/h (3 Bft)
01/04/2012 12:40 12,8 C 62 % 1012,9 hPa 0,0 mm 14,0 km/h (3 Bft) E-NE 67 2 min 0 W/m 5,7 C 12,8 C 20,2 km/h (4 Bft)
01/04/2012 12:50 13,1 C 63 % 1012,9 hPa 0,0 mm 7,6 km/h (2 Bft) NE 45 2 min 0 W/m 6,2 C 13,1 C 10,1 km/h (2 Bft)
01/04/2012 13:00 13,4 C 61 % 1012,7 hPa 0,0 mm 18,0 km/h (3 Bft) N-NE 22 2 min 0 W/m 6,0 C 13,4 C 23,4 km/h (4 Bft)
01/04/2012 13:10 13,5 C 60 % 1012,8 hPa 0,0 mm 10,8 km/h (2 Bft) N-NE 22 2 min 0 W/m 5,9 C 13,5 C 16,2 km/h (3 Bft)
01/04/2012 13:20 13,6 C 60 % 1012,6 hPa 0,0 mm 11,2 km/h (2 Bft) NE 45 2 min 0 W/m 6,0 C 13,6 C 12,6 km/h (3 Bft)
01/04/2012 13:30 13,6 C 60 % 1012,6 hPa 0,0 mm 13,0 km/h (3 Bft) E-NE 67 2 min 0 W/m 6,0 C 13,6 C 15,1 km/h (3 Bft)
01/04/2012 13:40 13,7 C 60 % 1012,7 hPa 0,0 mm 5,8 km/h (2 Bft) E-NE 67 2 min 0 W/m 6,1 C 13,7 C 10,4 km/h (2 Bft)
01/04/2012 13:50 13,8 C 60 % 1012,6 hPa 0,0 mm 14,4 km/h (3 Bft) NE 45 2 min 0 W/m 6,2 C 13,8 C 19,1 km/h (3 Bft)
01/04/2012 14:00 13,8 C 60 % 1012,4 hPa 0,0 mm 13,0 km/h (3 Bft) NE 45 2 min 0 W/m 6,2 C 13,8 C 19,4 km/h (3 Bft)
01/04/2012 14:10 13,8 C 59 % 1012,3 hPa 0,0 mm 14,8 km/h (3 Bft) NE 45 2 min 0 W/m 5,9 C 13,8 C 14,8 km/h (3 Bft)
01/04/2012 14:20 13,9 C 59 % 1012,4 hPa 0,0 mm 13,0 km/h (3 Bft) N-NE 22 2 min 0 W/m 6,0 C 13,9 C 18,4 km/h (3 Bft)
01/04/2012 14:30 13,8 C 59 % 1012,2 hPa 0,0 mm 11,5 km/h (2 Bft) NE 45 2 min 0 W/m 5,9 C 13,8 C 12,6 km/h (3 Bft)
01/04/2012 14:40 13,8 C 59 % 1012,1 hPa 0,0 mm 12,2 km/h (2 Bft) NE 45 2 min 0 W/m 5,9 C 13,8 C 18,7 km/h (3 Bft)
01/04/2012 14:50 14,1 C 59 % 1012,2 hPa 0,0 mm 11,9 km/h (2 Bft) NE 45 2 min 0 W/m 6,2 C 14,1 C 19,8 km/h (3 Bft)
01/04/2012 15:00 14,1 C 57 % 1011,9 hPa 0,0 mm 11,9 km/h (2 Bft) N-NE 22 2 min 0 W/m 5,7 C 14,1 C 14,8 km/h (3 Bft)
01/04/2012 15:10 14,0 C 57 % 1011,7 hPa 0,0 mm 10,1 km/h (2 Bft) N-NE 22 2 min 0 W/m 5,6 C 14,0 C 13,7 km/h (3 Bft)
01/04/2012 15:20 13,9 C 56 % 1011,7 hPa 0,0 mm 12,2 km/h (2 Bft) N-NE 22 2 min 0 W/m 5,3 C 13,9 C 13,7 km/h (3 Bft)
01/04/2012 15:30 13,9 C 55 % 1011,5 hPa 0,0 mm 8,6 km/h (2 Bft) NE 45 2 min 0 W/m 5,0 C 13,9 C 10,8 km/h (2 Bft)
01/04/2012 15:40 14,0 C 54 % 1011,5 hPa 0,0 mm 12,2 km/h (2 Bft) E-NE 67 2 min 0 W/m 4,8 C 14,0 C 16,6 km/h (3 Bft)
01/04/2012 15:50 14,0 C 54 % 1011,3 hPa 0,0 mm 13,0 km/h (3 Bft) E-NE 67 2 min 0 W/m 4,8 C 14,0 C 16,2 km/h (3 Bft)
01/04/2012 16:00 14,1 C 55 % 1011,3 hPa 0,0 mm 7,2 km/h (2 Bft) NE 45 2 min 0 W/m 5,2 C 14,1 C 7,2 km/h (2 Bft)
01/04/2012 16:10 14,4 C 54 % 1011,2 hPa 0,0 mm 10,1 km/h (2 Bft) NE 45 2 min 0 W/m 5,2 C 14,4 C 13,0 km/h (3 Bft)
01/04/2012 16:20 14,4 C 53 % 1011,1 hPa 0,0 mm 11,2 km/h (2 Bft) E-NE 67 2 min 0 W/m 4,9 C 14,4 C 14,4 km/h (3 Bft)
01/04/2012 16:30 14,5 C 53 % 1010,9 hPa 0,0 mm 11,2 km/h (2 Bft) NE 45 2 min 0 W/m 5,0 C 14,5 C 15,5 km/h (3 Bft)
01/04/2012 16:40 14,6 C 53 % 1010,8 hPa 0,0 mm 11,5 km/h (2 Bft) NE 45 2 min 0 W/m 5,1 C 14,6 C 18,4 km/h (3 Bft)
01/04/2012 16:50 14,6 C 52 % 1010,9 hPa 0,0 mm 3,6 km/h (1 Bft) E 90 2 min 0 W/m 4,9 C 14,6 C 10,1 km/h (2 Bft)
01/04/2012 17:00 14,6 C 51 % 1010,7 hPa 0,0 mm 17,3 km/h (3 Bft) NE 45 2 min 0 W/m 4,6 C 14,6 C 23,0 km/h (4 Bft)
01/04/2012 17:10 14,5 C 51 % 1010,7 hPa 0,0 mm 10,8 km/h (2 Bft) N-NE 22 2 min 0 W/m 4,5 C 14,5 C 14,4 km/h (3 Bft)
01/04/2012 17:20 14,6 C 51 % 1010,4 hPa 0,0 mm 11,2 km/h (2 Bft) N-NE 22 2 min 0 W/m 4,6 C 14,6 C 14,4 km/h (3 Bft)
01/04/2012 17:30 14,5 C 50 % 1010,4 hPa 0,0 mm 7,6 km/h (2 Bft) N-NE 22 2 min 0 W/m 4,2 C 14,5 C 11,2 km/h (2 Bft)
01/04/2012 17:40 14,5 C 50 % 1010,3 hPa 0,0 mm 4,0 km/h (1 Bft) N-NE 22 2 min 0 W/m 4,2 C 14,5 C 7,6 km/h (2 Bft)
01/04/2012 17:50 14,6 C 49 % 1010,3 hPa 0,0 mm 10,4 km/h (2 Bft) N-NE 22 2 min 0 W/m 4,0 C 14,6 C 16,2 km/h (3 Bft)
01/04/2012 18:00 14,5 C 49 % 1010,2 hPa 0,0 mm 7,9 km/h (2 Bft) N-NE 22 2 min 0 W/m 3,9 C 14,5 C 9,0 km/h (2 Bft)
01/04/2012 18:10 14,4 C 49 % 1010,3 hPa 0,0 mm 11,2 km/h (2 Bft) N-NE 22 2 min 0 W/m 3,8 C 14,4 C 20,5 km/h (4 Bft)
01/04/2012 18:20 14,2 C 48 % 1010,0 hPa 0,0 mm 11,9 km/h (2 Bft) N-NE 22 2 min 0 W/m 3,4 C 14,2 C 20,2 km/h (4 Bft)
01/04/2012 18:30 14,1 C 48 % 1010,1 hPa 0,0 mm 11,5 km/h (2 Bft) NE 45 2 min 0 W/m 3,3 C 14,1 C 20,2 km/h (4 Bft)
01/04/2012 18:40 14,0 C 47 % 1010,1 hPa 0,0 mm 7,2 km/h (2 Bft) NE 45 2 min 0 W/m 2,9 C 14,0 C 12,6 km/h (3 Bft)
01/04/2012 18:50 13,9 C 47 % 1010,0 hPa 0,0 mm 7,6 km/h (2 Bft) NE 45 2 min 0 W/m 2,8 C 13,9 C 14,8 km/h (3 Bft)
01/04/2012 19:00 13,8 C 46 % 1010,0 hPa 0,0 mm 11,9 km/h (2 Bft) E-NE 67 2 min 0 W/m 2,4 C 13,8 C 18,0 km/h (3 Bft)
01/04/2012 19:10 13,6 C 46 % 1010,0 hPa 0,0 mm 7,2 km/h (2 Bft) NE 45 2 min 0 W/m 2,2 C 13,6 C 11,2 km/h (2 Bft)
01/04/2012 19:20 13,5 C 46 % 1010,0 hPa 0,0 mm 9,7 km/h (2 Bft) NE 45 2 min 0 W/m 2,1 C 13,5 C 17,3 km/h (3 Bft)
01/04/2012 19:30 13,3 C 47 % 1010,0 hPa 0,0 mm 9,0 km/h (2 Bft) NE 45 2 min 0 W/m 2,2 C 13,3 C 9,0 km/h (2 Bft)
01/04/2012 19:40 13,1 C 47 % 1010,0 hPa 0,0 mm 6,1 km/h (2 Bft) NE 45 2 min 0 W/m 2,0 C 13,1 C 9,4 km/h (2 Bft)
01/04/2012 19:50 12,8 C 48 % 1010,1 hPa 0,0 mm 6,1 km/h (2 Bft) NE 45 2 min 0 W/m 2,1 C 12,8 C 6,8 km/h (2 Bft)
01/04/2012 20:00 12,4 C 49 % 1010,1 hPa 0,0 mm 5,0 km/h (1 Bft) NE 45 2 min 0 W/m 2,0 C 12,4 C 6,8 km/h (2 Bft)
01/04/2012 20:10 11,9 C 50 % 1010,0 hPa 0,0 mm 6,1 km/h (2 Bft) NE 45 2 min 0 W/m 1,8 C 11,9 C 9,0 km/h (2 Bft)
01/04/2012 20:20 11,5 C 51 % 1010,1 hPa 0,0 mm 4,3 km/h (1 Bft) N-NE 22 0 min 0 W/m 1,7 C 11,5 C 7,2 km/h (2 Bft)
01/04/2012 20:30 11,1 C 51 % 1010,1 hPa 0,0 mm 4,3 km/h (1 Bft) NE 45 0 min 0 W/m 1,4 C 11,1 C 9,0 km/h (2 Bft)
01/04/2012 20:40 10,8 C 52 % 1010,2 hPa 0,0 mm 3,2 km/h (1 Bft) NE 45 0 min 0 W/m 1,3 C 10,8 C 3,2 km/h (1 Bft)
01/04/2012 20:50 10,5 C 52 % 1010,1 hPa 0,0 mm 4,7 km/h (1 Bft) NE 45 0 min 0 W/m 1,1 C 10,5 C 5,8 km/h (2 Bft)
01/04/2012 21:00 10,3 C 53 % 1010,2 hPa 0,0 mm 6,8 km/h (2 Bft) NE 45 0 min 0 W/m 1,1 C 10,3 C 7,2 km/h (2 Bft)
01/04/2012 21:10 10,1 C 53 % 1010,1 hPa 0,0 mm 4,7 km/h (1 Bft) N-NE 22 0 min 0 W/m 1,0 C 10,1 C 7,6 km/h (2 Bft)
01/04/2012 21:20 9,8 C 54 % 1010,3 hPa 0,0 mm 6,1 km/h (2 Bft) N-NE 22 0 min 0 W/m 0,9 C 9,2 C 7,9 km/h (2 Bft)
01/04/2012 21:30 9,7 C 54 % 1010,2 hPa 0,0 mm 4,7 km/h (1 Bft) N-NE 22 0 min 0 W/m 0,9 C 9,5 C 7,9 km/h (2 Bft)
01/04/2012 21:40 9,5 C 54 % 1010,3 hPa 0,0 mm 8,6 km/h (2 Bft) N-NE 22 0 min 0 W/m 0,7 C 8,3 C 13,3 km/h (3 Bft)
01/04/2012 21:50 9,4 C 55 % 1010,4 hPa 0,0 mm 3,6 km/h (1 Bft) N-NE 22 0 min 0 W/m 0,8 C 9,4 C 6,5 km/h (2 Bft)
01/04/2012 22:00 9,2 C 55 % 1010,5 hPa 0,0 mm 6,1 km/h (2 Bft) NE 45 0 min 0 W/m 0,6 C 8,5 C 10,8 km/h (2 Bft)
01/04/2012 22:10 9,1 C 55 % 1010,4 hPa 0,0 mm 4,7 km/h (1 Bft) N-NE 22 0 min 0 W/m 0,5 C 8,8 C 7,9 km/h (2 Bft)
01/04/2012 22:20 8,9 C 55 % 1010,4 hPa 0,0 mm 4,7 km/h (1 Bft) N-NE 22 0 min 0 W/m 0,4 C 8,6 C 7,9 km/h (2 Bft)
01/04/2012 22:30 8,8 C 55 % 1010,4 hPa 0,0 mm 3,2 km/h (1 Bft) NE 45 0 min 0 W/m 0,3 C 8,8 C 4,3 km/h (1 Bft)
01/04/2012 22:40 8,6 C 56 % 1010,4 hPa 0,0 mm 6,1 km/h (2 Bft) NE 45 0 min 0 W/m 0,3 C 7,8 C 7,2 km/h (2 Bft)
01/04/2012 22:50 8,3 C 56 % 1010,5 hPa 0,0 mm 2,2 km/h (1 Bft) E-NE 67 0 min 0 W/m 0,0 C 8,3 C 6,1 km/h (2 Bft)
01/04/2012 23:00 8,1 C 56 % 1010,4 hPa 0,0 mm 0,0 km/h (0 Bft) NE 45 0 min 0 W/m -0,1 C 8,1 C 0,0 km/h (0 Bft)
01/04/2012 23:10 7,8 C 56 % 1010,4 hPa 0,0 mm 3,2 km/h (1 Bft) E-NE 67 0 min 0 W/m -0,4 C 7,8 C 4,0 km/h (1 Bft)
01/04/2012 23:20 7,8 C 56 % 1010,3 hPa 0,0 mm 1,8 km/h (1 Bft) NE 45 0 min 0 W/m -0,4 C 7,8 C 6,5 km/h (2 Bft)
01/04/2012 23:30 7,5 C 57 % 1010,4 hPa 0,0 mm 2,2 km/h (1 Bft) NE 45 0 min 0 W/m -0,5 C 7,5 C 3,6 km/h (1 Bft)
01/04/2012 23:40 7,4 C 57 % 1010,2 hPa 0,0 mm 3,2 km/h (1 Bft) N-NE 22 0 min 0 W/m -0,5 C 7,4 C 4,3 km/h (1 Bft)
01/04/2012 23:50 7,2 C 57 % 1010,1 hPa 0,0 mm 3,2 km/h (1 Bft) NE 45 0 min 0 W/m -0,7 C 7,2 C 6,1 km/h (2 Bft)
_ Min-Heure 06:20 19:20 20:10 - 23:00 - - - - 23:50 06:40 23:00
Minimum _ 5,3 C 46 % 1010,0 hPa - 0,0 km/h (0 Bft) - - - - -0,7 C 3,8 C 0,0 km/h (0 Bft)
_ Max-Heure 17:50 06:50 01:50 23:50 13:00 - - 20:10 23:50 12:50 17:50 11:20
Maximum _ 14,6 C 87 % 1013,3 hPa 0,0 mm 18,0 km/h
N-NE (3 Bft)
- - 2 min 0 W/m 6,2 C 14,6 C 27,0 km/h
NE (5 Bft)
Moyenne _ 9,8 C 67 % 1011,9 hPa #0,0 mm 8,1 km/h (2 Bft) NE - #2:30 h 0 W/m 3,6 C 9,2 C 11,6 km/h (2 Bft)
Saint Bonnet de Bellac- Haute Vienne - France